Time,TemperatureF,DewpointF,PressureIn,WindDirection,WindDirectionDegrees,WindSpeedMPH,WindSpeedGustMPH,Humidity,HourlyPrecipIn,Conditions,Clouds,dailyrainin,SolarRadiationWatts/m^2,SoftwareType,DateUTC
2013-04-12 00:03:00,38.0,38.0,-100.00,SE,144,10.0,17.0,99,0.01,,,0.19,0.000000,,2013-04-12 04:03:00,
2013-04-12 00:13:00,38.0,38.0,-100.00,SE,144,10.0,17.0,99,0.01,,,0.19,0.000000,,2013-04-12 04:13:00,
2013-04-12 00:33:00,40.0,40.0,-100.00,SSW,205,7.0,15.0,99,0.00,,,0.13,0.000000,,2013-04-12 04:33:00,
2013-04-12 00:43:00,40.0,40.0,-100.00,SSW,205,7.0,15.0,99,0.00,,,0.13,0.000000,,2013-04-12 04:43:00,
2013-04-12 00:53:00,40.0,40.0,-100.00,SSW,205,7.0,15.0,99,0.00,,,0.13,0.000000,,2013-04-12 04:53:00,
2013-04-12 01:03:00,40.0,40.0,-100.00,SSW,205,7.0,15.0,99,0.00,,,0.13,0.000000,,2013-04-12 05:03:00,
2013-04-12 01:12:00,40.0,40.0,-100.00,SSW,205,7.0,15.0,99,0.00,,,0.13,0.000000,,2013-04-12 05:12:00,
2013-04-12 01:32:00,42.0,42.0,-100.00,SSW,211,7.0,16.0,100,0.01,,,0.14,0.000000,,2013-04-12 05:32:00,
2013-04-12 01:42:00,42.0,42.0,-100.00,SSW,211,7.0,16.0,100,0.01,,,0.14,0.000000,,2013-04-12 05:42:00,
2013-04-12 01:52:00,42.0,42.0,-100.00,SSW,211,7.0,16.0,100,0.01,,,0.14,0.000000,,2013-04-12 05:52:00,
2013-04-12 02:02:00,42.0,42.0,-100.00,SSW,211,7.0,16.0,100,0.01,,,0.14,0.000000,,2013-04-12 06:02:00,
2013-04-12 02:12:00,42.0,42.0,-100.00,SSW,211,7.0,16.0,100,0.01,,,0.14,0.000000,,2013-04-12 06:12:00,
2013-04-12 02:32:00,43.0,43.0,-100.00,SW,216,6.0,15.0,100,0.01,,,0.15,0.000000,,2013-04-12 06:32:00,
2013-04-12 02:42:00,43.0,43.0,-100.00,SW,216,6.0,15.0,100,0.01,,,0.15,0.000000,,2013-04-12 06:42:00,
2013-04-12 02:52:00,43.0,43.0,-100.00,SW,216,6.0,15.0,100,0.01,,,0.15,0.000000,,2013-04-12 06:52:00,
2013-04-12 03:02:00,43.0,43.0,-100.00,SW,216,6.0,15.0,100,0.01,,,0.15,0.000000,,2013-04-12 07:02:00,
2013-04-12 03:12:00,43.0,43.0,-100.00,SW,216,6.0,15.0,100,0.01,,,0.15,0.000000,,2013-04-12 07:12:00,
2013-04-12 03:42:00,43.0,43.0,-100.00,WNW,290,8.0,18.0,100,0.00,,,0.15,0.000000,,2013-04-12 07:42:00,
2013-04-12 03:52:00,43.0,43.0,-100.00,WNW,290,8.0,18.0,100,0.00,,,0.15,0.000000,,2013-04-12 07:52:00,
2013-04-12 04:03:00,43.0,43.0,-100.00,WNW,290,8.0,18.0,100,0.00,,,0.15,0.000000,,2013-04-12 08:03:00,
2013-04-12 04:12:00,43.0,43.0,-100.00,WNW,290,8.0,18.0,100,0.00,,,0.15,0.000000,,2013-04-12 08:12:00,
2013-04-12 04:43:00,43.0,43.0,-100.00,NW,306,9.0,19.0,100,0.01,,,0.07,0.000000,,2013-04-12 08:43:00,
2013-04-12 04:53:00,43.0,43.0,-100.00,NW,306,9.0,19.0,100,0.01,,,0.07,0.000000,,2013-04-12 08:53:00,
2013-04-12 05:02:00,43.0,43.0,-100.00,NW,306,9.0,19.0,100,0.01,,,0.07,0.000000,,2013-04-12 09:02:00,
2013-04-12 05:12:00,43.0,43.0,-100.00,NW,306,9.0,19.0,100,0.01,,,0.07,0.000000,,2013-04-12 09:12:00,
2013-04-12 05:44:00,42.0,42.0,-100.00,WNW,284,9.0,21.0,100,0.00,,,-99.99,0.000000,,2013-04-12 09:44:00,
2013-04-12 05:53:00,42.0,42.0,-100.00,WNW,284,9.0,21.0,100,0.00,,,-99.99,0.000000,,2013-04-12 09:53:00,
2013-04-12 06:03:00,42.0,42.0,-100.00,WNW,284,9.0,21.0,100,0.00,,,-99.99,0.000000,,2013-04-12 10:03:00,
2013-04-12 06:13:00,42.0,42.0,-100.00,WNW,284,9.0,21.0,100,0.00,,,-99.99,0.000000,,2013-04-12 10:13:00,
2013-04-12 06:43:00,42.0,42.0,-100.00,WNW,291,8.0,18.0,100,0.05,,,-99.99,0.000000,,2013-04-12 10:43:00,
2013-04-12 06:53:00,42.0,42.0,-100.00,WNW,291,8.0,18.0,100,0.05,,,-99.99,0.000000,,2013-04-12 10:53:00,
2013-04-12 07:03:00,42.0,42.0,-100.00,WNW,291,8.0,18.0,100,0.05,,,-99.99,0.000000,,2013-04-12 11:03:00,
2013-04-12 07:13:00,42.0,42.0,-100.00,WNW,291,8.0,18.0,100,0.05,,,-99.99,0.000000,,2013-04-12 11:13:00,
2013-04-12 07:43:00,41.0,41.0,-100.00,WNW,302,9.0,17.0,100,0.14,,,0.24,1.000000,,2013-04-12 11:43:00,
2013-04-12 07:52:00,41.0,41.0,-100.00,WNW,302,9.0,17.0,100,0.14,,,0.24,1.000000,,2013-04-12 11:52:00,
2013-04-12 08:03:00,41.0,41.0,-100.00,WNW,302,9.0,17.0,100,0.14,,,0.24,1.000000,,2013-04-12 12:03:00,
2013-04-12 08:13:00,41.0,41.0,-100.00,WNW,302,9.0,17.0,100,0.14,,,0.24,1.000000,,2013-04-12 12:13:00,
2013-04-12 08:43:00,40.0,40.0,-100.00,WNW,298,11.0,18.0,100,0.16,,,0.40,9.000000,,2013-04-12 12:43:00,
2013-04-12 08:54:00,40.0,40.0,-100.00,WNW,298,11.0,18.0,100,0.16,,,0.40,9.000000,,2013-04-12 12:54:00,
2013-04-12 09:03:00,40.0,40.0,-100.00,WNW,298,11.0,18.0,100,0.16,,,0.40,9.000000,,2013-04-12 13:03:00,
2013-04-12 09:12:00,40.0,40.0,-100.00,WNW,298,11.0,18.0,100,0.16,,,0.40,9.000000,,2013-04-12 13:12:00,
2013-04-12 09:32:00,40.0,40.0,-100.00,WNW,298,10.0,17.0,100,0.10,,,0.49,20.000000,,2013-04-12 13:32:00,
2013-04-12 09:43:00,40.0,40.0,-100.00,WNW,298,10.0,17.0,100,0.10,,,0.49,20.000000,,2013-04-12 13:43:00,
2013-04-12 09:53:00,40.0,40.0,-100.00,WNW,298,10.0,17.0,100,0.10,,,0.49,20.000000,,2013-04-12 13:53:00,
2013-04-12 10:03:00,40.0,40.0,-100.00,WNW,298,10.0,17.0,100,0.10,,,0.49,20.000000,,2013-04-12 14:03:00,
2013-04-12 10:13:00,40.0,40.0,-100.00,WNW,298,10.0,17.0,100,0.10,,,0.49,20.000000,,2013-04-12 14:13:00,
2013-04-12 10:43:00,41.0,41.0,-100.00,WNW,293,9.0,15.0,100,0.04,,,0.53,44.000000,,2013-04-12 14:43:00,
2013-04-12 10:54:00,41.0,41.0,-100.00,WNW,293,9.0,15.0,100,0.04,,,0.53,44.000000,,2013-04-12 14:54:00,
2013-04-12 11:03:00,41.0,41.0,-100.00,WNW,293,9.0,15.0,100,0.04,,,0.53,44.000000,,2013-04-12 15:03:00,
2013-04-12 11:12:00,41.0,41.0,-100.00,WNW,293,9.0,15.0,100,0.04,,,0.53,44.000000,,2013-04-12 15:12:00,
2013-04-12 11:43:00,41.0,41.0,-100.00,WNW,288,11.0,18.0,100,0.01,,,-99.99,68.000000,,2013-04-12 15:43:00,
2013-04-12 11:53:00,41.0,41.0,-100.00,WNW,288,11.0,18.0,100,0.01,,,-99.99,68.000000,,2013-04-12 15:53:00,
2013-04-12 12:04:00,41.0,41.0,-100.00,WNW,288,11.0,18.0,100,0.01,,,-99.99,68.000000,,2013-04-12 16:04:00,
2013-04-12 12:13:00,41.0,41.0,-100.00,WNW,288,11.0,18.0,100,0.01,,,-99.99,68.000000,,2013-04-12 16:13:00,
2013-04-12 12:43:00,43.0,43.0,-100.00,NW,317,13.0,20.0,100,0.00,,,-99.99,109.000000,,2013-04-12 16:43:00,
2013-04-12 12:53:00,43.0,43.0,-100.00,NW,317,13.0,20.0,100,0.00,,,-99.99,109.000000,,2013-04-12 16:53:00,
2013-04-12 13:04:00,43.0,43.0,-100.00,NW,317,13.0,20.0,100,0.00,,,-99.99,109.000000,,2013-04-12 17:04:00,
2013-04-12 13:12:00,43.0,43.0,-100.00,NW,317,13.0,20.0,100,0.00,,,-99.99,109.000000,,2013-04-12 17:12:00,
2013-04-12 13:16:00,44.0,44.0,-100.00,NNW,340,12.0,21.0,100,0.00,,,0.54,198.000000,,2013-04-12 17:16:00,
2013-04-12 13:47:00,44.0,44.0,-100.00,NNW,340,12.0,21.0,100,0.00,,,0.54,198.000000,,2013-04-12 17:47:00,
2013-04-12 14:11:00,44.0,44.0,-100.00,NNW,340,12.0,21.0,100,0.00,,,0.54,198.000000,,2013-04-12 18:11:00,
2013-04-12 14:16:00,45.0,45.0,-100.00,NW,326,10.0,19.0,100,0.00,,,0.54,197.000000,,2013-04-12 18:16:00,
2013-04-12 15:43:00,46.0,46.0,-100.00,NNW,331,8.0,16.0,100,0.00,,,-99.99,166.000000,,2013-04-12 19:43:00,
2013-04-12 15:53:00,46.0,46.0,-100.00,NNW,331,8.0,16.0,100,0.00,,,-99.99,166.000000,,2013-04-12 19:53:00,
2013-04-12 16:02:00,46.0,46.0,-100.00,NNW,331,8.0,16.0,100,0.00,,,-99.99,166.000000,,2013-04-12 20:02:00,
2013-04-12 16:13:00,46.0,46.0,-100.00,NNW,331,8.0,16.0,100,0.00,,,-99.99,166.000000,,2013-04-12 20:13:00,
2013-04-12 16:43:00,45.0,45.0,-100.00,NNW,336,7.0,14.0,100,0.00,,,0.54,73.000000,,2013-04-12 20:43:00,
2013-04-12 16:52:00,45.0,45.0,-100.00,NNW,336,7.0,14.0,100,0.00,,,0.54,73.000000,,2013-04-12 20:52:00,
2013-04-12 17:03:00,45.0,45.0,-100.00,NNW,336,7.0,14.0,100,0.00,,,0.54,73.000000,,2013-04-12 21:03:00,
2013-04-12 17:12:00,45.0,45.0,-100.00,NNW,336,7.0,14.0,100,0.00,,,0.54,73.000000,,2013-04-12 21:12:00,
2013-04-12 17:43:00,47.0,47.0,-100.00,North,0,5.0,12.0,100,0.00,,,0.54,125.000000,,2013-04-12 21:43:00,
2013-04-12 17:53:00,47.0,47.0,-100.00,North,0,5.0,12.0,100,0.00,,,0.54,125.000000,,2013-04-12 21:53:00,
2013-04-12 18:03:00,47.0,47.0,-100.00,North,0,5.0,12.0,100,0.00,,,0.54,125.000000,,2013-04-12 22:03:00,
2013-04-12 18:13:00,47.0,47.0,-100.00,North,0,5.0,12.0,100,0.00,,,0.54,125.000000,,2013-04-12 22:13:00,
2013-04-12 18:43:00,47.0,47.0,-100.00,NNE,14,6.0,10.0,100,0.00,,,0.54,85.000000,,2013-04-12 22:43:00,
2013-04-12 18:52:00,47.0,47.0,-100.00,NNE,14,6.0,10.0,100,0.00,,,0.54,85.000000,,2013-04-12 22:52:00,
2013-04-12 19:04:00,47.0,47.0,-100.00,NNE,14,6.0,10.0,100,0.00,,,0.54,85.000000,,2013-04-12 23:04:00,
2013-04-12 19:12:00,47.0,47.0,-100.00,NNE,14,6.0,10.0,100,0.00,,,0.54,85.000000,,2013-04-12 23:12:00,
2013-04-12 19:32:00,46.0,46.0,-100.00,NNE,26,5.0,8.0,100,0.00,,,0.54,18.000000,,2013-04-12 23:32:00,
2013-04-12 19:42:00,46.0,46.0,-100.00,NNE,26,5.0,8.0,100,0.00,,,0.54,18.000000,,2013-04-12 23:42:00,
2013-04-12 19:52:00,46.0,46.0,-100.00,NNE,26,5.0,8.0,100,0.00,,,0.54,18.000000,,2013-04-12 23:52:00,
2013-04-12 20:02:00,46.0,46.0,-100.00,NNE,26,5.0,8.0,100,0.00,,,0.54,18.000000,,2013-04-13 00:02:00,
2013-04-12 20:12:00,46.0,46.0,-100.00,NNE,26,5.0,8.0,100,0.00,,,0.54,18.000000,,2013-04-13 00:12:00,
2013-04-12 20:42:00,46.0,46.0,-100.00,NE,36,4.0,7.0,100,0.00,,,0.54,2.000000,,2013-04-13 00:42:00,
2013-04-12 20:52:00,46.0,46.0,-100.00,NE,36,4.0,7.0,100,0.00,,,0.54,2.000000,,2013-04-13 00:52:00,
2013-04-12 21:02:00,46.0,46.0,-100.00,NE,36,4.0,7.0,100,0.00,,,0.54,2.000000,,2013-04-13 01:02:00,
2013-04-12 21:13:00,46.0,46.0,-100.00,NE,36,4.0,7.0,100,0.00,,,0.54,2.000000,,2013-04-13 01:13:00,
2013-04-12 21:33:00,45.0,45.0,-100.00,NNE,26,14.0,22.0,100,0.00,,,0.54,0.000000,,2013-04-13 01:33:00,
2013-04-12 21:43:00,45.0,45.0,-100.00,NNE,26,14.0,22.0,100,0.00,,,0.54,0.000000,,2013-04-13 01:43:00,
2013-04-12 21:52:00,45.0,45.0,-100.00,NNE,26,14.0,22.0,100,0.00,,,0.54,0.000000,,2013-04-13 01:52:00,
2013-04-12 22:02:00,45.0,45.0,-100.00,NNE,26,14.0,22.0,100,0.00,,,0.54,0.000000,,2013-04-13 02:02:00,
2013-04-12 22:12:00,45.0,45.0,-100.00,NNE,26,14.0,22.0,100,0.00,,,0.54,0.000000,,2013-04-13 02:12:00,
2013-04-12 22:43:00,41.0,35.0,-100.00,North,1,15.0,39.0,78,0.00,,,0.54,0.000000,,2013-04-13 02:43:00,
2013-04-12 22:53:00,41.0,35.0,-100.00,North,1,15.0,39.0,78,0.00,,,0.54,0.000000,,2013-04-13 02:53:00,
2013-04-12 23:03:00,41.0,35.0,-100.00,North,1,15.0,39.0,78,0.00,,,0.54,0.000000,,2013-04-13 03:03:00,
2013-04-12 23:12:00,41.0,35.0,-100.00,North,1,15.0,39.0,78,0.00,,,0.54,0.000000,,2013-04-13 03:12:00,
2013-04-12 23:43:00,39.0,32.0,-100.00,North,2,14.0,26.0,75,0.00,,,0.53,0.000000,,2013-04-13 03:43:00,
2013-04-12 23:54:00,39.0,32.0,-100.00,North,2,14.0,26.0,75,0.00,,,0.53,0.000000,,2013-04-13 03:54:00,